Regional Weather Roundup
Issued by NWS

Home | Current Version | Previous Version | Text Only | Print | Product List | Glossary Off
Versions: 1 2 3 4 5 6 7 8 9 10 11 12 13 14 15 16 17 18 19 20 21 22 23 24 25 26 27 28 29 30 31 32 33 34 35 36 37 38 39 40 41 42 43 44 45 46 47 48 49 50

871
ASUS43 KIND 241659
RWRIN

WEATHER ROUNDUP FOR INDIANA
NATIONAL WEATHER SERVICE INDIANAPOLIS IN
1200 PM EST FRI FEB 24 2017

NOTE: "FAIR" INDICATES FEW OR NO CLOUDS BELOW 12,000 FEET WITH NO
SIGNIFICANT WEATHER AND/OR OBSTRUCTIONS TO VISIBILITY.

* - STATION DOES NOT REPORT WEATHER SUCH AS PRECIPITATION OR FOG.

+ - STATION NOT QUALITY CONTROLLED BY THE NATIONAL WEATHER SERVICE.
    USE DATA WITH CAUTION...ESPECIALLY DEWPOINT AND RELATIVE
    HUMIDITY OBSERVATIONS.

INZ001>003-010>013-019-020-241800-
NORTHWEST INDIANA

CITY           SKY/WX    TMP DP  RH WIND       PRES   REMARKS
GARY /AIRPORT/ CLOUDY    41  39  93 N9        29.47F FOG
MICHIGAN CITY+ CLOUDY    50  50 100 CALM      29.46F
RENSSELAER +   CLOUDY    66  57  72 SW21G28   29.46S

$$

LMZ046-743>745-241800-
SOUTHERN LAKE MICHIGAN

STATION/POSITION TIME  TEMP    WIND        PRES    WAVE
                       AIR SEA DIR/SP/G            HT
                 (UTC) (F)     (DEG/KT/KT) (MB)    (FT)
BURNS HARBOR     1640   38     250/  6/  7  998.6F
MICHIGAN CITY    1630   42     100/  3/  4   N/A

$$

INZ004-005-014>016-021>024-241800-
NORTH CENTRAL INDIANA

CITY           SKY/WX    TMP DP  RH WIND       PRES   REMARKS
ELKHART        CLOUDY    63  55  77 SW6       29.48F
GOSHEN         CLOUDY    64  55  72 SW13G24   29.49F
SOUTH BEND     CLOUDY    63  56  78 SW10      29.47F

$$

INZ006>009-017-018-025>027-241800-
NORTHEAST INDIANA

CITY           SKY/WX    TMP DP  RH WIND       PRES   REMARKS
ANGOLA *+      PTSUNNY   66  57  72 SW16      29.49F
FORT WAYNE     CLOUDY    69  55  60 SW29G35   29.51F
KENDALLVILLE + PTSUNNY   66  56  70 SW18      29.52F

$$

INZ028-029-035-036-043>045-051>053-241800-
WEST CENTRAL INDIANA

CITY           SKY/WX    TMP DP  RH WIND       PRES   REMARKS
LAFAYETTE      CLOUDY    66  56  70 SW20G36   29.48F
TERRE HAUTE    PTSUNNY   68  53  58 S25G33    29.52F

$$

INZ030>032-037>040-046>048-054>057-064-065-241800-
CENTRAL INDIANA

CITY           SKY/WX    TMP DP  RH WIND       PRES   REMARKS
ANDERSON       MOSUNNY   68  55  64 S23G35    29.56F
COLUMBUS       SUNNY     72  55  56 S25G32    29.58F
INDIANAPOLIS   CLOUDY    72  51  47 SW26G39   29.54F
-EAGLE CREEK   MOSUNNY   71  51  49 SW17G25   29.53F
KOKOMO +       CLOUDY    69  55  60 SW26G33   29.52S
SHELBYVILLE    MOSUNNY   72  55  55 S24G35    29.55F

$$

INZ033-034-041-042-049-050-058-059-241800-
EAST CENTRAL INDIANA

CITY           SKY/WX    TMP DP  RH WIND       PRES   REMARKS
MUNCIE         CLOUDY    70  55  59 S23G36    29.53F

$$

INZ060-061-067>069-081>083-085>088-241800-
SOUTHWEST INDIANA

CITY           SKY/WX    TMP DP  RH WIND       PRES   REMARKS
EVANSVILLE     MOSUNNY   73  54  51 SW21G30   29.60F
HUNTINGBURG *+ MOSUNNY   72  55  56 S24       29.61S

$$

INZ062-063-066-070>080-084-089>092-241800-
SOUTH CENTRAL AND SOUTHEAST INDIANA

CITY           SKY/WX    TMP DP  RH WIND       PRES   REMARKS
BLOOMINGTON    CLOUDY    71  51  49 SW24G37   29.57S
MADISON *+     MOSUNNY   72  54  53 S18G29    29.65F
SEYMOUR +      MOSUNNY   73  55  53 S24G35    29.60F

$$





USA.gov is the U.S. government's official web portal to all federal, state and local government web resources and services.